Temp
12 11 11 11 11 10 9 9 8 7 7 6 6 6 6 6 7 7 7 6 6 5 6 7 7 8 7 8 8 8 5 6 9 11 12 14 13 12 12 12 13 13 16 17 16
12 11 11 11 10 10 9 8 8 7 7 7 7 6 6 6 7 8 5 5 5 6 6 7 7 7 8 8 8 8 7 9 12 10 11 12 12 11 12 12 12 12 15 15 16
12 12 11 11 10 9 9 8 8 7 7 6 6 6 6 6 7 8 6 6 6 6 6 7 7 7 8 8 8 9 7 10 11 12 6 7 10 10 11 12 12 11 13 15 15
12 12 11 10 10 9 9 8 7 7 7 6 6 6 7 6 10 7 6 6 6 6 6 7 7 8 9 8 8 7 9 9 9 10 10 6 6 10 10 11 12 13 13 11 14
11 11 11 10 10 9 8 8 7 7 7 6 6 7 7 8 7 6 5 6 6 6 6 7 7 8 8 8 8 8 9 9 8 9 9 10 9 10 11 11 11 11 11 13 13
11 11 11 10 9 9 8 7 7 7 7 6 6 7 8 8 6 6 6 6 6 6 6 7 7 6 7 8 7 8 8 7 7 9 10 11 11 11 11 11 11 10 10 12 12
11 11 11 10 9 9 8 7 7 7 7 7 6 6 7 6 6 6 6 6 6 6 6 6 5 6 7 8 8 7 5 8 10 11 11 11 10 11 11 12 11 10 10 12 12
11 11 11 10 9 9 8 7 7 6 7 7 6 6 8 6 6 6 6 6 6 6 5 5 5 5 6 7 8 8 6 8 11 12 12 11 10 13 13 12 11 11 11 10 11
11 11 11 10 9 8 7 7 7 7 6 7 6 6 9 6 5 5 6 5 6 6 6 5 5 7 8 9 9 9 8 9 9 10 10 11 11 11 12 11 11 11 10 9 10
11 10 10 10 9 8 7 7 7 6 6 7 6 7 8 5 5 5 5 6 6 6 8 7 7 9 9 8 5 6 6 8 7 9 8 10 11 11 11 11 10 10 10 9 9
10 10 10 10 8 8 8 6 7 8 5 5 5 5 5 4 5 6 5 6 7 9 8 8 8 7 7 8 6 7 6 8 10 6 7 11 11 11 10 9 10 10 10 9 9
10 10 10 9 8 7 7 5 5 4 6 4 5 5 4 4 6 5 4 5 7 8 9 9 8 7 8 8 7 8 8 8 10 10 11 10 11 12 11 10 10 9 9 9 8
10 10 9 8 7 6 6 5 4 4 6 6 4 5 4 4 5 5 3 4 7 7 7 7 7 8 8 8 7 8 7 7 8 10 12 11 11 12 11 10 10 9 8 8 8
10 9 9 8 6 5 4 4 4 4 5 7 6 5 5 5 6 5 3 3 6 6 6 7 8 7 8 7 7 5 8 7 8 9 8 12 9 11 11 11 10 8 7 7 8
9 9 8 8 6 4 4 4 3 3 10 7 6 4 5 4 4 5 3 3 4 4 5 7 6 5 6 6 7 6 8 7 8 8 8 11 8 7 5 7 6 7 6 7 8
10 9 7 7 6 5 4 3 3 5 8 6 5 5 6 5 5 4 3 2 3 3 5 6 6 6 6 7 7 8 6 8 9 8 8 9 8 6 6 5 6 7 7 6 7
10 9 8 7 5 5 4 2 5 8 8 6 4 4 5 4 4 4 3 2 -0 -0 2 5 7 7 6 7 8 7 6 7 7 7 9 10 8 5 4 4 5 5 4 5 7
9 8 7 7 6 5 4 5 8 4 5 4 4 5 4 3 3 3 4 2 2 -0 0 2 4 6 6 5 4 5 5 5 7 9 10 10 7 5 3 3 3 3 3 4 5
9 7 6 6 6 6 5 5 4 4 2 2 4 4 5 4 2 3 3 1 1 0 -1 -0 4 6 6 6 6 6 5 5 5 8 9 10 6 6 5 3 2 1 2 1 3
8 5 6 6 6 5 4 2 3 2 1 2 2 3 3 2 1 2 2 -0 -0 0 -0 -0 -1 6 6 7 7 6 7 5 6 7 8 8 6 4 3 0 0 0 -0 -0 2
8 7 6 7 6 4 3 2 2 0 0 1 1 1 2 1 1 1 1 2 1 0 0 -1 -1 3 6 3 2 4 3 4 5 6 6 9 5 2 1 -0 -1 -1 -2 -1 0
7 7 6 6 3 1 3 3 0 1 0 1 1 1 1 1 0 0 1 1 0 0 -1 -0 -1 1 4 4 5 4 3 3 4 5 6 7 3 1 -0 -1 -2 -2 -3 -2 -0
5 5 6 6 3 2 1 1 1 1 1 1 1 0 1 0 -1 1 1 1 0 1 -1 -1 1 2 4 3 5 2 3 3 3 3 5 6 4 0 -1 -1 -2 -3 -4 -3 -2
5 3 4 3 -0 4 2 1 0 -1 0 -0 0 1 0 0 1 -1 1 1 0 -0 -1 -0 -1 -0 1 1 1 1 0 1 3 5 3 3 3 -0 -0 -1 -2 -3 -4 -4 -3
5 1 1 2 0 0 0 1 1 1 -0 -0 1 1 -0 -3 -2 -2 -0 -0 1 -0 -1 -2 -1 0 1 2 1 0 -1 -0 -0 1 2 1 1 -2 -2 -2 -2 -3 -4 -4 -4
4 1 -0 -0 -0 -0 -1 -0 1 0 0 0 -0 1 0 -2 -1 -2 -2 -1 -1 -1 -3 -3 -0 0 0 2 2 1 -1 -0 -1 -1 1 2 1 -1 -3 -2 -3 -4 -5 -5 -5
5 4 2 -2 -1 1 0 -0 -0 -1 -1 -0 -0 -0 -0 -0 -1 -2 -2 -2 -1 -2 -3 -3 -3 -1 2 2 0 1 -3 -2 -1 -2 -2 -1 -2 -2 -3 -2 -3 -4 -5 -5 -5
Height
1538 1534 1531 1526 1522 1517 1512 1508 1503 1500 1497 1494 1492 1491 1490 1488 1487 1488 1486 1486 1482 1478 1474 1472 1469 1466 1464 1461 1461 1459 1461 1453 1441 1436 1430 1428 1429 1433 1436 1437 1428 1425 1419 1427 1429
1538 1534 1531 1526 1521 1516 1512 1507 1502 1499 1496 1494 1493 1491 1490 1488 1487 1487 1485 1482 1479 1475 1473 1472 1468 1466 1461 1458 1457 1455 1449 1438 1437 1438 1433 1432 1433 1434 1434 1430 1428 1432 1427 1428 1428
1538 1534 1530 1525 1520 1515 1510 1506 1502 1500 1498 1496 1494 1492 1489 1489 1488 1487 1483 1480 1476 1473 1471 1469 1468 1464 1459 1454 1452 1448 1447 1440 1433 1433 1441 1444 1436 1437 1435 1431 1432 1431 1427 1431 1428
1538 1534 1529 1524 1519 1514 1509 1504 1501 1500 1498 1497 1495 1493 1490 1488 1487 1487 1482 1479 1475 1472 1469 1467 1465 1459 1456 1451 1449 1448 1443 1441 1439 1436 1434 1442 1446 1436 1434 1430 1429 1431 1429 1435 1431
1538 1533 1529 1523 1518 1513 1508 1504 1501 1500 1498 1498 1496 1493 1490 1491 1491 1487 1482 1479 1475 1471 1468 1466 1463 1459 1454 1451 1448 1442 1437 1438 1437 1436 1434 1433 1435 1430 1427 1426 1427 1426 1428 1425 1428
1537 1533 1528 1522 1517 1512 1506 1503 1502 1500 1499 1497 1496 1494 1494 1493 1491 1487 1483 1478 1473 1469 1467 1465 1463 1461 1456 1450 1448 1443 1439 1437 1433 1430 1428 1427 1427 1428 1420 1422 1424 1429 1429 1426 1427
1536 1532 1527 1522 1516 1511 1506 1503 1502 1501 1499 1497 1496 1495 1495 1496 1491 1487 1482 1477 1473 1469 1466 1466 1464 1461 1454 1447 1444 1443 1441 1430 1423 1420 1422 1424 1421 1418 1417 1419 1423 1426 1425 1425 1425
1535 1531 1526 1521 1516 1510 1506 1505 1503 1501 1500 1497 1497 1497 1495 1494 1490 1487 1482 1474 1471 1468 1466 1465 1463 1459 1454 1448 1441 1436 1436 1420 1414 1414 1416 1421 1413 1406 1409 1413 1420 1422 1423 1423 1423
1534 1530 1525 1520 1516 1511 1507 1504 1502 1501 1500 1499 1500 1498 1495 1493 1487 1484 1480 1473 1468 1466 1464 1463 1462 1456 1448 1439 1430 1427 1423 1418 1418 1419 1418 1416 1410 1410 1409 1413 1417 1420 1421 1420 1422
1533 1528 1524 1518 1515 1510 1507 1505 1503 1503 1501 1499 1499 1500 1495 1493 1489 1485 1479 1472 1468 1465 1461 1462 1458 1449 1445 1442 1445 1441 1436 1427 1426 1423 1424 1414 1409 1412 1412 1415 1420 1420 1420 1419 1424
1531 1526 1522 1518 1513 1510 1506 1506 1508 1507 1503 1507 1508 1507 1503 1496 1490 1486 1477 1470 1467 1460 1459 1456 1452 1452 1450 1446 1448 1440 1439 1425 1416 1430 1425 1408 1407 1411 1413 1417 1416 1416 1422 1425 1425
1531 1526 1521 1517 1513 1510 1508 1507 1506 1509 1510 1509 1508 1505 1503 1498 1492 1488 1481 1474 1468 1462 1458 1453 1450 1456 1452 1446 1443 1434 1430 1425 1417 1417 1414 1410 1404 1405 1412 1416 1420 1425 1426 1423 1423
1530 1526 1520 1516 1512 1509 1509 1508 1507 1508 1509 1510 1508 1506 1502 1498 1494 1491 1486 1478 1470 1463 1464 1458 1461 1459 1450 1445 1445 1436 1437 1432 1425 1417 1408 1405 1404 1404 1408 1413 1416 1419 1419 1419 1416
1530 1525 1521 1516 1514 1510 1509 1509 1508 1508 1509 1509 1508 1507 1504 1494 1495 1494 1489 1486 1476 1471 1466 1459 1460 1460 1450 1447 1447 1444 1438 1435 1425 1418 1414 1403 1408 1402 1409 1413 1418 1422 1420 1420 1417
1529 1524 1520 1515 1514 1513 1511 1508 1510 1511 1492 1511 1510 1509 1507 1507 1508 1498 1494 1485 1481 1480 1476 1463 1464 1463 1457 1456 1449 1443 1438 1435 1426 1420 1419 1402 1411 1423 1427 1423 1429 1425 1422 1420 1416
1526 1523 1519 1515 1511 1511 1509 1508 1510 1511 1498 1512 1513 1511 1508 1507 1506 1502 1498 1491 1487 1481 1476 1472 1469 1465 1463 1455 1451 1444 1440 1429 1421 1421 1417 1409 1414 1430 1432 1437 1429 1427 1426 1423 1417
1525 1520 1519 1516 1514 1509 1508 1510 1511 1502 1514 1516 1518 1515 1510 1511 1507 1504 1499 1498 1504 1498 1487 1474 1465 1463 1465 1452 1447 1444 1442 1425 1426 1421 1411 1409 1415 1444 1445 1442 1438 1433 1426 1418 1415
1523 1520 1519 1517 1513 1509 1509 1511 1504 1527 1520 1525 1522 1516 1515 1516 1513 1508 1502 1503 1508 1511 1504 1491 1471 1466 1467 1466 1463 1454 1451 1443 1422 1412 1409 1411 1424 1446 1451 1448 1443 1437 1430 1420 1417
1523 1520 1519 1516 1513 1511 1514 1514 1529 1532 1537 1533 1523 1517 1513 1518 1521 1513 1509 1514 1515 1516 1517 1504 1476 1471 1469 1467 1463 1454 1453 1455 1449 1423 1414 1415 1441 1444 1446 1445 1442 1441 1434 1428 1428
1523 1521 1521 1517 1514 1512 1517 1531 1534 1539 1539 1536 1531 1529 1524 1524 1524 1520 1518 1523 1520 1520 1520 1515 1506 1472 1469 1463 1463 1461 1456 1450 1443 1430 1416 1421 1441 1458 1455 1456 1450 1447 1442 1435 1429
1521 1522 1519 1515 1515 1516 1526 1535 1538 1541 1541 1540 1538 1536 1532 1533 1530 1527 1525 1522 1525 1522 1520 1519 1517 1483 1468 1479 1480 1468 1473 1462 1455 1443 1431 1414 1455 1475 1472 1470 1464 1458 1454 1445 1440
1520 1522 1518 1517 1519 1525 1529 1534 1540 1541 1542 1541 1541 1538 1536 1534 1536 1533 1526 1524 1527 1524 1520 1520 1517 1499 1480 1482 1480 1478 1479 1476 1461 1451 1441 1434 1467 1480 1479 1477 1472 1464 1457 1453 1445
1520 1521 1520 1518 1523 1530 1535 1538 1540 1540 1542 1541 1541 1542 1541 1538 1538 1529 1528 1527 1527 1527 1525 1522 1510 1495 1476 1484 1477 1486 1485 1480 1474 1467 1455 1438 1464 1483 1482 1479 1474 1468 1460 1450 1446
1520 1521 1521 1520 1527 1527 1532 1537 1540 1542 1544 1544 1544 1542 1541 1538 1537 1535 1530 1528 1528 1529 1527 1523 1520 1517 1507 1505 1503 1498 1496 1489 1477 1463 1472 1476 1475 1484 1480 1479 1478 1474 1469 1463 1457
1518 1522 1523 1527 1531 1532 1534 1538 1538 1540 1543 1544 1543 1543 1543 1547 1540 1537 1533 1529 1527 1530 1529 1529 1519 1512 1509 1502 1503 1502 1503 1498 1494 1489 1480 1485 1483 1494 1492 1486 1482 1480 1473 1466 1460
1518 1520 1526 1532 1534 1534 1537 1539 1537 1541 1542 1542 1544 1542 1542 1545 1541 1541 1538 1532 1530 1531 1532 1532 1517 1511 1505 1499 1499 1500 1506 1503 1502 1499 1490 1487 1487 1499 1496 1490 1484 1480 1476 1472 1468
1516 1518 1522 1533 1534 1534 1536 1539 1540 1541 1542 1542 1542 1543 1540 1540 1540 1539 1539 1537 1535 1536 1534 1532 1530 1516 1493 1496 1502 1498 1517 1512 1507 1513 1509 1501 1507 1501 1495 1491 1489 1485 1482 1478 1471
Wind_Speed
21 23 24 25 27 26 27 28 24 15 12 9 7 6 7 10 11 10 10 13 15 18 17 15 14 14 17 14 17 19 6 11 20 22 23 23 10 22 27 27 33 17 20 5 5
21 23 25 26 27 26 28 27 20 12 9 7 7 8 4 4 4 10 12 14 16 17 15 16 16 16 15 15 13 11 13 21 21 8 16 14 14 15 20 20 26 19 29 17 5
20 23 25 27 27 26 28 24 14 10 8 7 6 8 8 6 5 10 15 16 17 16 13 13 15 16 17 13 13 16 15 22 20 18 11 14 13 12 20 18 18 21 24 19 5
19 23 26 27 26 26 27 19 10 7 7 6 7 5 8 2 4 13 16 18 21 16 14 14 15 15 12 9 13 10 18 19 21 23 15 10 16 14 23 19 17 30 17 15 7
20 22 26 27 26 25 25 13 7 6 5 4 7 11 7 2 8 14 19 20 21 15 11 12 15 15 11 15 14 16 17 17 19 22 26 18 21 17 22 22 20 10 14 11 5
20 23 26 27 25 25 21 8 6 7 4 2 3 9 8 7 15 15 21 22 16 12 11 10 12 14 14 15 11 14 18 22 23 23 22 15 18 20 23 18 22 15 14 2 6
21 23 26 26 23 25 16 5 3 8 7 2 3 4 5 7 16 15 20 23 14 12 10 10 11 10 17 14 7 14 13 17 15 17 15 16 18 22 26 22 12 19 21 10 11
21 24 27 27 22 23 11 5 3 3 5 15 0 5 3 12 19 15 23 24 13 10 8 9 9 12 11 13 15 9 6 6 3 6 10 13 11 11 25 22 16 14 12 15 17
21 25 28 27 21 21 8 5 7 6 6 6 11 5 2 16 24 20 25 26 14 9 8 8 8 9 12 12 10 3 10 12 5 9 7 11 9 5 7 13 10 5 6 8 17
21 25 28 27 20 19 3 2 7 17 4 5 9 5 6 25 20 21 28 20 11 11 6 6 8 6 10 10 8 12 11 13 10 10 8 9 12 4 2 7 6 3 4 7 12
21 25 28 27 18 19 9 5 5 1 17 7 4 4 19 24 11 25 34 18 11 7 9 2 6 10 13 10 7 12 9 13 8 8 8 8 10 7 6 3 3 8 7 5 11
21 25 27 25 15 18 11 3 2 4 2 6 7 7 16 20 14 24 32 14 12 11 12 5 8 14 12 6 9 10 8 8 5 8 7 6 6 10 8 8 4 2 4 5 11
21 24 25 22 11 18 14 5 5 4 2 3 5 9 18 18 9 26 31 16 11 10 12 8 11 13 9 6 13 5 8 12 12 14 12 7 5 6 8 7 1 7 8 7 5
21 24 23 20 10 14 10 6 3 2 2 8 8 10 19 15 2 20 27 9 9 10 12 3 12 13 14 10 12 5 10 12 14 9 1 4 5 7 10 6 8 14 10 11 4
21 22 19 18 10 8 9 4 2 3 2 10 6 8 16 18 15 20 21 10 10 12 7 10 12 11 12 13 12 7 15 10 10 6 9 4 2 7 15 10 15 14 20 13 1
19 21 18 18 13 13 9 3 3 2 4 5 6 14 17 19 11 17 22 23 5 7 8 9 7 5 10 18 6 15 8 6 7 3 3 5 4 9 8 12 15 15 13 10 7
19 19 16 16 9 12 7 2 1 5 5 10 9 12 11 17 11 17 12 19 15 11 13 17 3 12 16 11 3 15 9 3 3 3 2 5 7 6 8 15 14 15 23 21 10
18 17 13 15 14 11 5 1 6 1 4 7 10 12 7 14 8 14 9 13 16 15 9 10 5 16 14 9 8 12 7 5 3 2 6 1 4 5 12 17 21 21 21 26 24
17 13 12 15 12 9 2 5 3 4 5 10 9 5 5 13 10 10 13 9 11 15 8 9 5 13 11 10 9 8 6 5 5 6 2 4 5 13 19 21 26 27 28 28 27
14 7 9 14 10 9 5 4 2 3 5 4 7 6 6 13 11 12 13 6 10 15 6 5 7 8 11 9 9 8 9 3 3 3 3 6 6 9 22 22 21 22 28 32 29
9 3 8 11 6 8 4 4 3 3 4 5 5 6 5 7 8 7 9 4 12 14 9 6 2 10 6 8 9 10 8 6 4 4 4 3 5 8 14 14 17 18 24 29 30
3 2 8 5 4 5 3 3 2 3 3 2 2 5 5 9 5 5 7 5 15 15 9 5 4 6 4 4 3 5 12 8 5 7 4 4 4 10 14 14 21 24 27 29 27
1 1 6 2 2 3 4 4 3 2 3 3 3 4 4 5 4 5 7 8 12 10 12 8 2 7 2 3 8 6 17 12 9 5 7 6 4 12 17 17 24 26 31 35 33
0 1 6 10 6 5 5 4 3 2 2 3 2 2 6 3 2 5 9 5 12 8 12 8 3 3 6 8 8 10 15 16 8 4 8 7 7 17 21 19 22 29 29 30 30
2 2 2 2 4 8 4 2 3 2 1 2 1 3 5 3 4 3 6 9 5 7 10 5 3 9 11 6 1 11 14 13 10 11 7 10 6 15 17 17 20 22 28 30 33
1 5 6 5 6 5 3 1 2 3 1 1 1 6 4 3 2 6 7 3 3 9 6 7 5 12 3 5 2 4 16 14 9 12 9 9 4 18 22 21 21 22 28 28 29
4 9 4 4 4 2 2 3 3 3 2 1 3 6 4 3 8 11 12 14 13 8 5 5 7 7 2 6 5 5 10 11 4 9 11 7 11 21 19 23 18 22 27 27 32
Wind_Direction
18 12 8 2 359 356 355 354 356 3 10 19 52 77 101 97 58 35 21 353 341 335 333 326 322 313 312 283 266 258 244 258 262 258 261 273 303 279 241 243 261 288 286 33 351
14 7 4 359 358 356 354 354 356 9 27 49 67 52 167 96 51 24 351 342 333 331 333 327 326 326 312 294 270 247 249 257 256 306 283 280 279 281 290 211 256 269 259 280 334
11 5 1 357 357 356 354 355 5 24 42 61 60 40 20 218 261 357 337 340 339 335 322 316 312 311 298 304 279 259 251 274 287 250 179 289 297 270 284 265 216 253 259 284 276
9 4 358 357 357 355 353 357 19 52 45 69 53 42 55 150 343 337 334 335 335 331 321 315 314 305 306 302 305 271 269 278 278 285 274 222 286 274 268 272 283 229 256 242 267
6 1 359 357 355 355 353 3 36 32 39 103 60 57 25 354 343 336 336 332 331 319 313 310 310 322 305 310 305 284 276 288 287 274 270 259 240 261 272 268 289 258 250 261 280
2 0 359 358 354 355 355 18 51 42 48 115 94 54 20 31 338 321 331 336 336 333 314 306 308 308 289 299 292 291 298 289 273 260 239 246 246 238 253 258 255 240 233 260 336
359 357 359 359 355 355 2 27 85 56 32 327 252 301 322 7 350 339 340 334 331 324 308 309 301 296 311 309 317 289 289 278 243 239 223 238 243 241 250 249 233 226 247 262 310
357 356 357 0 359 358 7 19 298 295 38 33 345 340 329 341 344 340 344 339 326 315 302 295 293 286 274 301 279 243 228 290 101 225 210 211 255 249 231 223 222 244 277 268 303
353 354 357 359 3 0 7 59 19 301 281 344 8 296 337 340 352 350 345 335 328 331 306 295 292 283 304 316 287 268 341 351 342 52 322 206 257 180 220 176 204 235 292 306 305
352 353 356 359 2 7 336 336 30 33 351 356 356 259 346 339 332 345 341 336 329 329 305 285 261 308 358 359 354 332 335 323 319 0 325 238 246 308 112 178 138 94 305 283 291
351 354 356 357 360 12 13 275 305 184 43 55 24 23 328 332 344 350 348 342 343 306 336 256 314 355 346 344 322 301 293 304 311 346 283 263 240 180 146 125 48 35 339 282 282
351 353 356 356 3 15 30 62 112 155 55 35 8 339 348 344 339 357 353 357 342 341 340 220 17 351 322 333 319 295 293 328 327 280 299 276 246 163 164 150 156 100 28 332 304
351 352 356 358 356 11 31 53 142 122 290 356 354 346 350 343 352 356 0 342 349 335 355 330 3 331 322 340 351 348 357 340 307 312 268 275 216 169 143 120 150 15 358 325 309
347 349 357 2 15 1 5 22 125 115 270 13 353 12 351 348 241 357 0 351 2 336 342 311 356 344 335 5 346 302 356 320 306 309 296 351 128 126 145 153 34 358 12 328 223
344 348 356 4 358 358 353 24 102 75 300 357 3 350 358 31 339 354 1 355 10 334 326 20 348 350 353 346 332 327 322 293 278 298 322 127 240 30 42 17 355 348 341 343 81
342 345 357 1 1 358 7 53 88 262 19 7 1 353 352 9 10 348 11 17 28 339 323 306 296 311 346 313 301 324 333 249 242 312 260 336 1 38 16 352 356 355 333 306 13
338 343 356 357 354 356 5 58 2 43 347 341 338 341 339 350 7 4 20 40 36 357 359 324 74 7 5 343 331 355 343 190 179 209 49 18 61 50 14 2 358 357 357 1 20
336 341 354 356 359 4 26 281 51 345 360 356 334 326 23 13 359 352 8 23 33 15 303 340 329 8 352 356 313 313 338 352 319 161 121 102 90 56 35 6 6 8 358 17 27
336 341 355 354 1 13 323 50 44 19 353 338 317 343 9 13 348 349 17 26 18 15 6 349 301 341 355 337 346 341 6 313 286 240 233 102 75 227 9 10 6 6 3 360 1
336 332 338 354 8 43 58 93 59 33 348 341 357 9 331 351 360 4 12 33 356 3 29 2 295 327 337 330 11 336 328 296 280 286 141 94 64 5 3 359 350 0 360 350 357
335 298 330 353 26 60 69 62 96 58 17 7 348 320 341 347 334 349 355 28 8 349 349 318 258 316 343 20 354 5 21 340 287 320 329 137 78 14 6 3 348 352 357 350 350
336 277 342 7 29 52 86 81 89 54 38 30 323 326 326 333 324 326 345 356 354 342 348 18 301 296 329 22 347 315 17 349 342 350 347 318 83 18 14 1 0 356 357 356 3
264 327 354 61 80 98 114 97 75 65 39 20 16 5 346 319 319 341 343 357 357 354 360 350 346 308 181 218 21 4 355 338 308 247 8 326 86 17 7 8 7 2 1 1 3
90 33 29 58 67 107 121 107 125 81 79 13 342 302 348 318 324 308 332 349 344 355 351 328 290 330 316 324 332 353 356 358 327 339 334 33 23 6 2 359 357 1 1 2 4
105 100 88 51 57 97 88 145 127 121 80 15 263 0 349 298 306 318 336 334 345 10 0 16 286 331 303 282 333 31 13 10 20 355 27 343 36 9 353 346 347 356 359 2 7
145 135 91 88 109 105 14 102 131 130 106 105 308 333 306 248 322 306 333 324 331 340 354 341 310 326 278 220 236 358 22 6 21 3 358 348 62 1 343 343 349 360 0 357 358
172 147 150 145 128 155 109 149 142 144 162 319 327 313 290 300 307 295 286 277 279 303 319 332 333 337 322 333 311 207 12 358 354 23 343 15 338 338 341 344 346 3 358 352 355